Charleston, WV

11:16 AM EST on February 25, 2017 (GMT -0500)
Yeager Airport

Weather History for KCRW - November, 2013

Change the Weather History Date:

Wednesday, November 13, 2013

  Actual Average Record
Temperature  
Mean Temperature 30 °F 48 °F  
Max Temperature 36 °F 58 °F 86 °F (1931)
Min Temperature 23 °F 38 °F 16 °F (1911)
Degree Days  
Heating Degree Days 35 17  
Month to date heating degree days 227 198  
Since 1 July heating degree days 533 538  
Cooling Degree Days 0 0  
Month to date cooling degree days 0 0  
Year to date cooling degree days 1121 1094  
Moisture  
Dew Point 23 °F    
Average Humidity 78    
Maximum Humidity 100    
Minimum Humidity 56    
Precipitation  
Precipitation 0.00 in 0.13 in 1.07 in (1993)
Month to date precipitation 0.99 1.55  
Year to date precipitation 38.79 38.58  
Snow  
Snow 0.00 in - - ()
Month to date snowfall 1.2  
Since 1 September snowfall 1.2  
Snow Depth T in    
Sea Level Pressure  
Sea Level Pressure 30.57 in    
Wind  
Wind Speed 3 mph (SSW)    
Max Wind Speed 13 mph    
Max Gust Speed 16 mph    
Visibility 10 miles    
Events      
T = Trace of Precipitation, MM = Missing Value Source: NWS Daily Summary

Daily Weather History Graph

Daily Weather History Graph

Search for Another Location

Airport or City:

Trip Planner

Search our weather history database for the weather conditions in past years. The results will help you decide how hot, cold, wet, or windy it might be!

Date:

Astronomy

Nov. 13, 2013 Rise Set
Actual Time 7:05 AM EST 5:15 PM EST
Civil Twilight 6:37 AM EST 5:43 PM EST
Nautical Twilight 6:05 AM EST 6:15 PM EST
Astronomical Twilight 5:34 AM EST 6:46 PM EST
Moon 2:59 PM EST (11/13) 3:00 AM EST (11/13)
Length of Visible Light 11h 05m
Length of Day
10h 09m
Waxing Gibbous, 84% of the Moon is Illuminated
Nov 13
Waxing Gibbous
Nov 17
Full
Nov 25
Last Quarter
Dec 2
New
Dec 9
First Quarter

Hourly Weather History & Observations

Time (EST) Temp. Windchill Dew Point Humidity Pressure Visibility Wind Dir Wind Speed Gust Speed Precip Events Conditions
12:54 AM 25.0 °F - 23.0 °F 92% 30.58 in 10.0 mi Calm Calm - N/A   Clear
1:54 AM 25.0 °F - 24.1 °F 96% 30.58 in 10.0 mi Calm Calm - N/A   Mostly Cloudy
2:54 AM 25.0 °F - 24.1 °F 96% 30.58 in 10.0 mi Calm Calm - N/A   Mostly Cloudy
3:54 AM 25.0 °F - 23.0 °F 92% 30.59 in 10.0 mi Calm Calm - N/A   Clear
4:54 AM 24.1 °F - 21.9 °F 91% 30.60 in 10.0 mi Calm Calm - N/A   Clear
5:54 AM 24.1 °F 19.7 °F 21.9 °F 91% 30.60 in 10.0 mi WSW 3.5 mph - N/A   Clear
6:54 AM 23.0 °F - 21.9 °F 96% 30.62 in 9.0 mi Calm Calm - N/A   Clear
7:54 AM 23.0 °F 18.4 °F 23.0 °F 100% 30.63 in 10.0 mi SW 3.5 mph - N/A   Clear
8:54 AM 28.0 °F - 24.1 °F 85% 30.64 in 10.0 mi Calm Calm - N/A   Partly Cloudy
9:54 AM 28.0 °F - 23.0 °F 81% 30.64 in 10.0 mi Calm Calm - N/A   Partly Cloudy
10:54 AM 30.0 °F 26.5 °F 23.0 °F 75% 30.64 in 10.0 mi SSW 3.5 mph - N/A   Scattered Clouds
11:54 AM 30.9 °F 25.2 °F 21.9 °F 69% 30.63 in 10.0 mi West 5.8 mph - N/A   Mostly Cloudy
12:54 PM 32.0 °F 28.7 °F 21.9 °F 66% 30.60 in 10.0 mi Variable 3.5 mph - N/A   Mostly Cloudy
1:25 PM 33.8 °F 26.4 °F 23.0 °F 65% 30.56 in 10.0 mi SW 9.2 mph 16.1 mph N/A   Mostly Cloudy
1:54 PM 36.0 °F 32.1 °F 21.9 °F 57% 30.58 in 10.0 mi WSW 4.6 mph - N/A   Mostly Cloudy
2:54 PM 35.1 °F 28.6 °F 21.9 °F 59% 30.57 in 10.0 mi SSW 8.1 mph - N/A   Scattered Clouds
3:54 PM 35.1 °F 31.0 °F 21.0 °F 57% 30.56 in 10.0 mi South 4.6 mph - N/A   Partly Cloudy
4:54 PM 34.0 °F 28.0 °F 21.9 °F 61% 30.55 in 10.0 mi SW 6.9 mph - N/A   Clear
5:54 PM 32.0 °F 26.4 °F 21.9 °F 66% 30.55 in 10.0 mi South 5.8 mph - N/A   Clear
6:54 PM 30.0 °F 25.2 °F 23.0 °F 75% 30.53 in 10.0 mi SSE 4.6 mph - N/A   Clear
7:54 PM 28.9 °F 25.2 °F 24.1 °F 82% 30.52 in 10.0 mi SE 3.5 mph - N/A   Clear
8:54 PM 28.9 °F 25.2 °F 24.1 °F 82% 30.51 in 10.0 mi SE 3.5 mph - N/A   Clear
9:54 PM 28.0 °F - 24.1 °F 85% 30.50 in 10.0 mi Calm Calm - N/A   Clear
10:54 PM 27.0 °F - 24.1 °F 89% 30.48 in 10.0 mi Calm Calm - N/A   Clear
11:54 PM 27.0 °F - 24.1 °F 89% 30.46 in 10.0 mi Calm Calm - N/A   Clear